Terminal Aerodrome Forecast
Issued by NWS Cleveland, OH

Home | Current Version | Previous Version | Graphics & Text | Print | Product List | Glossary On
Versions: 1 2 3 4 5 6 7 8 9 10 11 12 13
000
FTUS41 KCLE 240533
TAFMFD
TAF
KMFD 240533Z 2406/2506 06005KT P6SM FEW100 SCT250
     FM241400 09012G20KT P6SM SCT100 BKN250
     FM250100 11010KT P6SM BKN050 OVC100=

USA.gov is the U.S. government's official web portal to all federal, state and local government web resources and services.